Location: Unspecified
(0.0000°N, 0.0000°E)
Time: 08:42:07
(UTC+00:00)

ZACube-1 - Visible Passes

Search period start: 24 March 2019 00:00
Search period end: 03 April 2019 00:00
Orbit: 585 x 666 km, 97.6° (Epoch: 24 March)

Date Brightness Start Highest point End Pass type
(mag) Time Alt. Az. Time Alt. Az. Time Alt. Az.
25 Mar ? 18:43:17 10° S 18:47:25 70° WSW 18:51:38 10° NNW visible
26 Mar ? 19:02:39 10° SSW 19:06:28 35° W 19:10:20 10° NW visible
27 Mar ? 05:38:07 10° ENE 05:40:11 13° ESE 05:42:14 10° SE visible
27 Mar ? 19:22:33 10° SSW 19:25:30 19° WSW 19:28:30 10° NW visible
29 Mar ? 18:23:25 10° SSE 18:27:34 58° ENE 18:31:46 10° N visible
30 Mar ? 18:42:24 10° S 18:46:36 71° WSW 18:50:52 10° NNW visible
31 Mar ? 19:01:47 10° SSW 19:05:39 35° W 19:09:35 10° NW visible
01 Apr ? 05:37:26 10° ENE 05:39:24 13° E 05:41:21 10° SE visible
01 Apr ? 19:21:39 10° SSW 19:24:41 19° W 19:27:46 10° NW visible
02 Apr ? 19:43:30 10° WSW 19:43:44 10° WSW 19:43:57 10° W visible
